Vertical_Velocity
0 4 -4 -7 -4 -2 -2 -0 -1 -0 -2 3 -1 -1 -3 -2 4 1 -0 0 -2 -4 4 -2 -1 3 2 1 2 1 11 3 -0 -1 -2 -0 -1 -5 -6 -8 -7 2 0 1
4 -3 -6 -1 1 -0 1 0 -2 -2 -0 5 -1 -5 -2 0 -3 -3 -3 0 -2 0 -1 -1 -6 0 -2 1 -1 4 2 4 4 -1 -2 5 2 -0 5 4 5 3 1 -1
-4 -5 1 -0 2 3 -0 -0 -1 -1 -1 0 1 -2 -2 -1 0 1 0 -1 3 -3 -3 -1 -4 -6 -1 -1 0 -1 -3 -1 -2 2 -3 -2 6 10 1 -1 3 -5 -2 2
-4 -4 -1 2 -1 -1 4 -2 0 1 2 0 1 -4 -3 -2 -2 0 0 -1 -1 -2 0 -1 -1 -3 -4 -4 -2 -2 -2 1 4 -0 3 1 -4 -7 -8 3 8 -3 -2 -2
-14 1 2 2 -10 -1 -11 -1 -2 0 1 2 1 6 -7 1 -2 -3 -2 -1 -2 -2 -2 -6 -5 -3 -1 -1 -3 -1 -1 4 3 -2 -1 -2 1 6 3 0 -4 2 -5 0
-5 0 -1 -10 -0 -3 -2 2 -1 -1 -0 5 -5 3 -4 -1 -6 -1 -1 -0 2 -1 -1 1 6 4 -3 -1 0 -1 -0 -2 -0 -0 -5 -2 -2 -5 -4 -2 -4 -2 3 3
2 -1 0 -1 4 3 3 1 0 5 5 -6 0 5 -13 -3 -3 -3 -2 -2 1 2 0 1 -6 -4 -3 -7 -1 -1 -1 -2 -2 -2 -2 -6 -1 -3 -2 -4 1 1 -0 -3
-2 6 -0 -2 -5 -7 -4 -4 -5 -4 -1 -2 1 -2 -10 -3 -2 -0 -2 -0 0 0 0 -1 -2 -3 -1 -3 -3 1 -2 -0 -4 -3 -2 -2 -1 -4 -3 -2 1 -2 -2 -2
-0 -2 2 0 -1 -9 3 3 -8 0 0 1 -2 -3 -6 -1 -2 -1 -2 1 -2 3 -0 1 4 -3 -1 -2 -7 -5 -3 -1 2 1 -2 -4 -3 -5 -9 -4 -5 -5 -4 -2
-3 1 -0 1 -2 0 -5 -4 2 0 1 -0 -0 -1 -5 -1 -3 -2 -1 -2 -4 1 -0 -1 0 -0 -1 5 8 4 0 -0 3 3 1 0 1 -1 -0 -1 -10 -7 -6 -8
-1 -3 -2 0 1 -4 3 3 1 -2 -1 -1 -1 -4 -5 -4 -2 -1 -2 -1 -1 1 -0 -0 1 1 5 6 -3 2 -3 -2 -2 -2 2 1 -4 -5 -4 -9 -5 -11 12 1
2 -2 -1 -4 -0 0 0 -0 -1 5 -3 0 0 -8 1 -0 0 1 -2 -2 0 -1 1 1 2 0 -4 2 3 -3 0 -6 -2 2 1 -1 4 4 1 -4 0 2 -6 5
2 -0 -0 3 2 -2 -3 1 -0 -0 -0 -2 2 -7 -1 -1 -1 -2 -1 -3 -2 2 -0 3 0 -1 -0 0 2 -1 2 1 4 2 -0 2 -3 -9 -7 -2 -2 -3 -3 -3
-1 -0 -1 -3 2 -1 -1 -0 -0 -1 0 -0 -3 -3 -5 -5 -1 -5 -6 -2 -2 6 5 -2 0 -1 -1 -1 -0 0 2 1 3 1 2 -2 -4 -3 0 7 3 2 5 2
-2 -1 -0 -0 -0 0 -1 0 -1 1 -3 4 -4 1 -6 -4 -1 -3 -1 -3 -3 -5 0 4 -3 1 1 -1 0 3 1 1 3 -1 0 -8 8 5 7 3 2 5 1 4
-3 1 -0 -1 -1 1 1 -0 0 -0 -2 1 2 -4 -3 -6 -0 -1 -4 2 -2 -5 -6 1 5 1 -2 -0 -2 6 1 -1 3 -2 -7 9 1 1 1 3 1 3 4 4
1 -0 0 -0 0 0 1 -6 -2 -1 -0 -0 2 -10 -0 -3 -1 -2 -4 1 -1 -1 -4 -5 -3 2 4 -2 4 -6 0 6 -1 1 1 -1 1 1 -1 3 1 0 2 5
-0 -1 0 -1 0 1 -4 -1 1 1 -2 -1 -0 -2 1 0 -4 -3 8 -3 -3 -2 -5 -4 -4 0 -3 5 -2 5 -0 3 1 2 -0 2 2 2 3 -1 -1 1 1 2
0 -1 0 1 -0 -6 -8 -3 -0 -2 -10 0 -0 -1 -2 -2 -0 -10 3 2 2 -2 -6 -6 8 2 1 -3 4 1 2 4 -0 -2 1 3 1 1 4 1 0 2 2 3
2 -0 1 2 0 -2 -4 -1 0 1 -4 -1 1 -0 1 -2 -1 -6 -1 3 -6 0 -0 -6 4 -5 -1 6 8 5 3 4 3 4 2 5 3 2 4 -4 -2 1 -0 3
2 2 -2 0 -0 -6 -5 -3 1 4 -1 -0 0 2 -0 2 4 -6 -4 -5 14 -2 -10 1 -2 -0 -5 9 1 -2 4 3 0 4 5 3 4 -0 -1 -4 -1 2 1 2
-5 -3 -1 3 3 -8 -0 4 2 2 -5 2 1 -1 -1 1 -0 4 -3 2 -3 -4 -8 -1 1 -0 3 7 2 0 -2 1 3 0 1 3 5 3 2 -3 -3 1 2 2
2 -9 -7 -5 -12 -1 -1 -0 2 5 4 -2 3 -1 5 3 5 -1 -8 -2 -2 -0 -2 -2 5 9 4 2 3 3 -2 3 3 3 2 -2 -2 2 -2 1 3 0 2 3
-0 -0 0 4 -3 -5 1 1 -0 1 2 0 1 1 10 7 2 -4 -4 -2 3 -6 -2 -3 4 10 4 7 -1 8 1 1 6 2 3 -4 5 2 2 2 4 3 2 2
-5 -1 -2 -5 -2 -4 5 1 0 -2 1 -0 2 3 0 -1 0 -3 -1 1 -0 2 0 4 1 2 2 7 4 6 4 4 3 3 6 4 1 6 2 2 2 3 -2 -1
-1 -3 -0 -2 1 2 -3 -1 -1 -2 -3 -0 -4 2 5 -8 -10 1 10 -4 3 -12 11 5 5 4 5 2 2 1 8 10 12 2 -2 0 4 -1 1 0 -3 2 5 2
Height
1465 1466 1460 1458 1461 1464 1466 1470 1472 1472 1469 1470 1467 1463 1455 1460 1463 1464 1464 1465 1467 1469 1472 1472 1474 1476 1478 1480 1482 1484 1487 1491 1493 1498 1504 1510 1516 1522 1528 1535 1538 1544 1549 1553
1464 1459 1456 1461 1463 1463 1465 1465 1466 1466 1467 1468 1461 1457 1451 1455 1455 1456 1459 1460 1461 1466 1468 1469 1471 1473 1475 1477 1480 1482 1485 1489 1493 1497 1502 1509 1514 1521 1527 1531 1536 1541 1545 1550
1453 1451 1452 1457 1462 1465 1463 1464 1466 1466 1468 1464 1463 1458 1450 1449 1451 1451 1452 1453 1455 1458 1461 1464 1466 1469 1471 1473 1476 1480 1482 1487 1491 1496 1501 1506 1514 1519 1524 1528 1532 1536 1541 1546
1452 1449 1451 1452 1455 1459 1465 1461 1462 1466 1469 1467 1460 1468 1454 1444 1444 1444 1443 1447 1448 1451 1456 1459 1461 1464 1467 1469 1472 1476 1480 1484 1489 1493 1497 1502 1505 1511 1517 1522 1528 1532 1537 1542
1445 1445 1448 1452 1449 1454 1453 1456 1459 1462 1466 1467 1464 1465 1449 1446 1440 1436 1434 1436 1440 1443 1447 1451 1454 1459 1464 1467 1469 1472 1477 1481 1485 1489 1495 1499 1505 1510 1514 1519 1526 1529 1533 1539
1439 1440 1441 1441 1445 1447 1450 1455 1461 1465 1467 1468 1457 1458 1444 1439 1432 1430 1429 1429 1432 1435 1440 1446 1450 1454 1458 1462 1465 1467 1471 1475 1479 1484 1489 1495 1500 1505 1510 1515 1521 1526 1530 1534
1439 1438 1437 1438 1444 1448 1449 1456 1467 1470 1469 1457 1454 1458 1436 1431 1427 1426 1425 1424 1428 1430 1434 1438 1443 1445 1450 1455 1458 1462 1465 1469 1473 1478 1482 1488 1495 1500 1505 1510 1515 1519 1523 1527
1437 1445 1434 1432 1434 1439 1447 1449 1455 1463 1461 1450 1457 1450 1433 1423 1422 1423 1423 1422 1423 1426 1428 1430 1433 1438 1442 1448 1453 1456 1460 1463 1467 1472 1476 1482 1488 1493 1499 1505 1510 1513 1516 1520
1436 1435 1426 1426 1427 1430 1447 1451 1444 1454 1460 1458 1446 1439 1426 1419 1418 1419 1418 1419 1418 1420 1421 1423 1426 1431 1436 1440 1444 1449 1454 1458 1461 1464 1469 1474 1478 1483 1488 1496 1500 1505 1510 1513
1427 1430 1423 1425 1428 1431 1431 1436 1449 1454 1456 1456 1446 1445 1432 1423 1416 1412 1415 1415 1414 1414 1415 1416 1419 1423 1428 1433 1438 1443 1447 1451 1456 1459 1462 1466 1470 1475 1481 1486 1489 1494 1498 1502
1423 1426 1431 1422 1426 1428 1435 1435 1438 1439 1445 1443 1448 1440 1422 1415 1414 1413 1412 1411 1411 1410 1411 1412 1414 1418 1423 1428 1432 1435 1440 1444 1448 1452 1456 1459 1462 1467 1472 1475 1479 1482 1486 1490
1428 1432 1434 1427 1424 1427 1430 1432 1434 1440 1442 1451 1451 1436 1417 1419 1417 1416 1412 1410 1408 1407 1407 1409 1411 1414 1417 1421 1424 1427 1432 1435 1439 1444 1449 1452 1456 1460 1463 1465 1467 1472 1475 1481
1430 1434 1437 1433 1432 1431 1437 1440 1441 1443 1447 1445 1449 1438 1419 1419 1418 1415 1414 1407 1405 1404 1404 1405 1406 1408 1410 1414 1417 1419 1423 1426 1431 1435 1439 1444 1448 1451 1452 1455 1459 1463 1469 1472
1430 1431 1435 1434 1437 1438 1441 1439 1439 1440 1445 1443 1441 1437 1428 1420 1418 1413 1410 1408 1405 1402 1401 1401 1403 1402 1404 1406 1409 1412 1415 1419 1423 1427 1430 1433 1437 1439 1442 1447 1450 1454 1458 1462
1433 1435 1434 1432 1434 1437 1436 1436 1436 1440 1439 1441 1433 1430 1426 1421 1415 1413 1410 1406 1403 1399 1398 1397 1397 1398 1399 1400 1403 1405 1407 1410 1413 1418 1420 1421 1426 1431 1436 1439 1442 1446 1449 1451
1439 1439 1441 1442 1436 1434 1437 1435 1433 1432 1430 1427 1426 1427 1417 1413 1410 1408 1405 1401 1398 1395 1393 1392 1391 1393 1394 1395 1396 1398 1401 1403 1406 1408 1412 1415 1418 1421 1424 1428 1432 1436 1439 1442
1444 1441 1442 1439 1441 1438 1438 1428 1424 1420 1416 1416 1419 1413 1414 1413 1409 1403 1398 1396 1395 1390 1388 1387 1387 1387 1387 1388 1390 1392 1395 1396 1398 1401 1405 1408 1411 1413 1417 1421 1424 1427 1430 1433
1444 1444 1450 1445 1445 1441 1419 1418 1419 1420 1415 1412 1412 1414 1414 1410 1407 1403 1394 1391 1387 1384 1383 1381 1382 1381 1381 1382 1383 1386 1387 1389 1392 1394 1397 1400 1403 1407 1410 1413 1416 1419 1422 1425
1441 1443 1445 1443 1440 1426 1417 1414 1416 1418 1410 1413 1413 1412 1409 1406 1402 1395 1391 1389 1386 1380 1377 1376 1375 1374 1373 1372 1375 1377 1379 1381 1383 1386 1388 1391 1396 1400 1402 1404 1408 1412 1416 1419
1439 1440 1443 1445 1438 1435 1420 1416 1415 1412 1413 1407 1408 1406 1404 1401 1398 1393 1386 1383 1377 1372 1368 1365 1365 1366 1366 1365 1366 1366 1368 1371 1373 1376 1380 1384 1389 1393 1397 1401 1405 1408 1410 1412
1436 1442 1439 1438 1436 1423 1415 1414 1415 1416 1413 1408 1406 1403 1401 1400 1399 1395 1385 1376 1374 1366 1359 1356 1356 1356 1358 1356 1355 1357 1359 1362 1365 1368 1373 1378 1382 1386 1391 1395 1401 1404 1406 1408
1427 1430 1432 1433 1436 1429 1411 1412 1414 1409 1408 1405 1403 1401 1397 1394 1390 1387 1386 1376 1366 1357 1352 1349 1347 1348 1348 1347 1347 1350 1352 1355 1358 1364 1370 1375 1379 1382 1386 1390 1396 1399 1401 1403
1421 1418 1419 1419 1412 1408 1409 1409 1409 1408 1406 1403 1400 1397 1395 1391 1387 1383 1384 1375 1366 1356 1350 1346 1346 1341 1342 1340 1343 1345 1349 1353 1356 1359 1365 1372 1377 1380 1385 1388 1391 1394 1397 1402
1415 1413 1414 1414 1406 1405 1405 1408 1409 1406 1402 1399 1396 1393 1393 1390 1384 1381 1382 1374 1367 1359 1354 1350 1348 1344 1339 1339 1342 1346 1347 1354 1358 1361 1363 1370 1376 1377 1381 1386 1390 1394 1399 1402
1407 1409 1409 1405 1405 1403 1405 1407 1406 1403 1400 1397 1394 1392 1388 1385 1381 1385 1380 1374 1368 1362 1359 1353 1351 1347 1342 1344 1345 1347 1351 1355 1358 1362 1364 1368 1374 1378 1381 1385 1390 1393 1398 1404
1406 1405 1405 1401 1411 1411 1409 1407 1404 1401 1398 1396 1393 1391 1386 1379 1387 1385 1375 1373 1367 1365 1362 1353 1351 1351 1351 1351 1349 1351 1355 1359 1361 1362 1365 1371 1374 1376 1381 1386 1389 1393 1398 1402